This is the latest recevied weather packets stored in our database for station/object KB3HLL. If no packets are shown the sender has not sent any weather packets the latest 10 day(s).
| Time | Temp. | Humidity | Pressure | Rain* | Wind** | Luminosity | Snow |
|---|---|---|---|---|---|---|---|
| 1777659078 | 10° C | 69% | 1012.6 hPa | 0 mm | - | 242 W/m² | - |
| 1777658778 | 10° C | 68% | 1012.5 hPa | 0 mm | - | 243 W/m² | - |
| 1777658478 | 10° C | 65% | 1012.5 hPa | 0 mm | - | 287 W/m² | - |
| 1777658178 | 10° C | 62% | 1012.5 hPa | 0 mm | - | 205 W/m² | - |
| 1777657878 | 10° C | 62% | 1012.5 hPa | 0 mm | - | 240 W/m² | - |
| 1777657578 | 10° C | 62% | 1012.4 hPa | 0 mm | - | 304 W/m² | - |
| 1777657278 | 10° C | 62% | 1012.5 hPa | 0 mm | - | 342 W/m² | - |
| 1777656977 | 10° C | 60% | 1012.5 hPa | 0 mm | - | 329 W/m² | - |
| 1777656678 | 10° C | 60% | 1012.7 hPa | 0 mm | - | 268 W/m² | - |
| 1777656378 | 10° C | 59% | 1012.7 hPa | 0 mm | - | 426 W/m² | - |
| 1777656079 | 10° C | 60% | 1012.9 hPa | 0 mm | - | 302 W/m² | - |
| 1777655778 | 10° C | 59% | 1012.9 hPa | 0 mm | - | 360 W/m² | - |
| 1777655478 | 10° C | 60% | 1012.7 hPa | 0 mm | - | 368 W/m² | - |
| 1777655180 | 10° C | 59% | 1012.8 hPa | 0 mm | - | 505 W/m² | - |
| 1777654879 | 10.56° C | 59% | 1012.9 hPa | 0 mm | - | 463 W/m² | - |
| 1777654578 | 10.56° C | 58% | 1012.8 hPa | 0 mm | - | 474 W/m² | - |
| 1777654278 | 10° C | 59% | 1012.9 hPa | 0 mm | - | 504 W/m² | - |
| 1777653978 | 10.56° C | 58% | 1013 hPa | 0 mm | - | 639 W/m² | - |
| 1777653678 | 10.56° C | 60% | 1013 hPa | 0 mm | - | 507 W/m² | - |
| 1777653378 | 10.56° C | 58% | 1013.1 hPa | 0 mm | - | 430 W/m² | - |
| 1777653078 | 10° C | 59% | 1013.1 hPa | 0 mm | - | 493 W/m² | - |
| 1777652778 | 10° C | 58% | 1013.3 hPa | 0 mm | - | 858 W/m² | - |
| 1777652478 | 9.44° C | 59% | 1013.4 hPa | 0 mm | - | 482 W/m² | - |
| 1777652178 | 8.89° C | 61% | 1013.4 hPa | 0 mm | - | 606 W/m² | - |
| 1777651879 | 8.89° C | 60% | 1013.4 hPa | 0 mm | - | 748 W/m² | - |
* Rain latest hour (hover to see other rain measurements)
** Current wind speed in m/s (hover to see current wind gust speed)